This is the latest recevied weather packets stored in our database for station/object KBVX. If no packets are shown the sender has not sent any weather packets the latest 1 day(s).
| Time | Temp. | Humidity | Pressure | Rain* | Wind** | Luminosity | Snow |
|---|---|---|---|---|---|---|---|
| 1778083532 | 12.78° C | 66% | 1016.9 hPa | - | - | - | - |
| 1778082814 | 10.56° C | 76% | 1016.9 hPa | - | - | - | - |
| 1778079810 | 10.56° C | 76% | 1016.9 hPa | - | - | - | - |
| 1778076806 | 10° C | 87% | 1016.6 hPa | - | - | - | - |
| 1778075607 | 8.89° C | 87% | 1015.9 hPa | - | - | - | - |
| 1778073208 | 8.89° C | 87% | 1015.9 hPa | - | - | - | - |
| 1778070208 | 8.89° C | 87% | 1014.6 hPa | - | - | - | - |
| 1778069607 | 8.89° C | 87% | 1014.6 hPa | - | - | - | - |
| 1778066610 | 8.89° C | 87% | 1013.9 hPa | - | - | - | - |
| 1778062407 | 8.89° C | 93% | 1013.2 hPa | - | - | - | - |
| 1778059407 | 8.89° C | 93% | 1012.5 hPa | - | - | - | - |
| 1778058807 | 8.89° C | 93% | 1012.5 hPa | - | - | - | - |
| 1778058210 | 8.89° C | 93% | 1012.5 hPa | - | - | - | - |
| 1778057012 | 8.89° C | 100% | 1012.2 hPa | - | - | - | - |
| 1778056407 | 8.89° C | 100% | 1012.2 hPa | - | - | - | - |
| 1778055806 | 8.89° C | 100% | 1012.2 hPa | - | - | - | - |
| 1778055205 | 8.89° C | 100% | 1011.9 hPa | - | - | - | - |
| 1778053408 | 8.89° C | 100% | 1011.5 hPa | - | - | - | - |
| 1778052207 | 8.89° C | 100% | 1011.5 hPa | - | - | - | - |
| 1778051008 | 8.89° C | 100% | 1011.5 hPa | - | - | - | - |
| 1778050403 | 10° C | 93% | 1011.2 hPa | - | - | - | - |
| 1778049212 | 10° C | 93% | 1011.2 hPa | - | - | - | - |
| 1778048606 | 10° C | 93% | 1011.2 hPa | - | - | - | - |
| 1778048005 | 10° C | 93% | 1011.2 hPa | - | - | - | - |
| 1778047410 | 10° C | 93% | 1011.2 hPa | - | - | - | - |
* Rain since midnight (hover to see other rain measurements)
** Current wind speed in m/s (hover to see current wind gust speed)